Location: ????????
(55.6773°N, 38.2421°E)
Time: 06:21:43
(UTC+00:00)

Cosmos 1850 Rocket - Pass Details

Date: 23 May 2024
Orbit: 753 x 782 km, 74.0° (Epoch: 23 June)

Event Time Altitude Azimuth Distance (km) Brightness Sun altitude
Exits shadow 00:06:04 - 212° (SSW) 2,532 6.0 -6.3°
Reaches altitude 10° 00:06:36 10° 213° (SSW) 2,323 5.8 -6.3°
Maximum altitude 00:11:54 77° 300° (WNW) 798 4.1 -5.8°
Drops below altitude 10° 00:17:11 10° 26° (NNE) 2,319 8.1 -5.3°
Sets 00:19:34 0° 28° (NNE) 3,245 9.3 -5.1°
